BAW92 CYYZ-EGLL

Flight info

Callsign BAW92
Flight time N/A
Altitude 37000
Route VERDO7 IPTOS DCT KEMVI Q852 KANUR Q806 SAVEX DCT MIILS N285B NICSO/M081F370 DCT 48N050W 50N040W 52N030W 54N020W DCT DOGAL DCT BEXET/N0460F370 DCT DEVOL DCT LIFFY UL975 MALUD Q38 NUGRA
Aircraft B772/H-SDE2E3FGHIJ5LORVWXY/LB1D1

Departure

Time 2026-05-05 14:15
Airport Toronto Pearson International Airport (CYYZ)

Arrival

Time N/A
Airport London Heathrow Airport (EGLL)
Time Latitude Longitude Altitude Speed Heading
2026-05-05 13:24 43.68161 -79.62048 578 ft 0 kts 32°
2026-05-05 14:05 43.68160 -79.62049 578 ft 0 kts 32°
2026-05-05 14:05 43.68148 -79.62058 578 ft 2 kts 17°
2026-05-05 14:05 43.68133 -79.62062 578 ft 2 kts
2026-05-05 14:06 43.68118 -79.62061 578 ft 2 kts 349°
2026-05-05 14:06 43.68104 -79.62058 578 ft 1 kts 349°
2026-05-05 14:06 43.68102 -79.62058 578 ft 0 kts 349°
2026-05-05 14:09 43.68105 -79.62058 578 ft 0 kts 341°
2026-05-05 14:09 43.68110 -79.62064 578 ft 0 kts 321°
2026-05-05 14:10 43.68122 -79.62089 578 ft 6 kts 290°
2026-05-05 14:10 43.68150 -79.62152 578 ft 8 kts 316°
2026-05-05 14:10 43.68203 -79.62227 577 ft 13 kts 313°
2026-05-05 14:10 43.68270 -79.62331 577 ft 14 kts 296°
2026-05-05 14:11 43.68279 -79.62476 576 ft 16 kts 296°
2026-05-05 14:11 43.68358 -79.62598 573 ft 18 kts 315°
2026-05-05 14:11 43.68458 -79.62726 571 ft 20 kts 316°
2026-05-05 14:11 43.68564 -79.62863 568 ft 22 kts 316°
2026-05-05 14:12 43.68683 -79.63019 565 ft 24 kts 316°
2026-05-05 14:12 43.68812 -79.63185 561 ft 26 kts 317°
2026-05-05 14:12 43.68942 -79.63357 558 ft 22 kts 316°
2026-05-05 14:12 43.69043 -79.63494 556 ft 18 kts 314°
2026-05-05 14:13 43.69115 -79.63526 556 ft 11 kts 20°
2026-05-05 14:13 43.69174 -79.63449 557 ft 12 kts 41°
2026-05-05 14:13 43.69258 -79.63425 557 ft 13 kts 359°
2026-05-05 14:13 43.69350 -79.63438 557 ft 13 kts 340°
2026-05-05 14:14 43.69383 -79.63545 557 ft 14 kts 244°
2026-05-05 14:14 43.69312 -79.63655 555 ft 16 kts 226°
2026-05-05 14:14 43.69214 -79.63797 554 ft 31 kts 226°
2026-05-05 14:14 43.68898 -79.64259 553 ft 101 kts 227°
2026-05-05 14:15 43.68264 -79.65178 604 ft 153 kts 229°
2026-05-05 14:15 43.67508 -79.66267 1090 ft 162 kts 228°
2026-05-05 14:15 43.66721 -79.67371 1869 ft 160 kts 229°
2026-05-05 14:15 43.65921 -79.68504 2117 ft 174 kts 230°
2026-05-05 14:16 43.65038 -79.69801 2267 ft 194 kts 230°
2026-05-05 14:16 43.64053 -79.71252 2464 ft 215 kts 230°
2026-05-05 14:16 43.62987 -79.72821 2717 ft 233 kts 230°
2026-05-05 14:16 43.61789 -79.74413 3082 ft 247 kts 221°
2026-05-05 14:17 43.60329 -79.75690 3870 ft 245 kts 211°
2026-05-05 14:17 43.58746 -79.76527 4523 ft 249 kts 200°
2026-05-05 14:17 43.56976 -79.76611 5059 ft 266 kts 173°
2026-05-05 14:17 43.55290 -79.75455 5721 ft 280 kts 146°
2026-05-05 14:18 43.54071 -79.73280 6213 ft 299 kts 120°
2026-05-05 14:18 43.53436 -79.70505 6725 ft 308 kts 109°
2026-05-05 14:18 43.52926 -79.67627 7342 ft 309 kts 109°
2026-05-05 14:18 43.52423 -79.64711 7880 ft 312 kts 109°
2026-05-05 14:19 43.51928 -79.61820 8367 ft 317 kts 109°
2026-05-05 14:19 43.51417 -79.58817 8880 ft 320 kts 109°
2026-05-05 14:19 43.50927 -79.55797 9386 ft 326 kts 102°
2026-05-05 14:19 43.51040 -79.52656 9794 ft 339 kts 77°
2026-05-05 14:20 43.51776 -79.49516 10257 ft 345 kts 72°
2026-05-05 14:20 43.52524 -79.46329 10438 ft 361 kts 75°
2026-05-05 14:20 43.53308 -79.42950 10572 ft 378 kts 68°
2026-05-05 14:20 43.54456 -79.39595 10724 ft 395 kts 63°
2026-05-05 14:21 43.55716 -79.36153 10916 ft 410 kts 63°
2026-05-05 14:21 43.57010 -79.32616 11122 ft 423 kts 64°
2026-05-05 14:21 43.58338 -79.28971 11526 ft 431 kts 63°
2026-05-05 14:21 43.59679 -79.25285 12139 ft 432 kts 63°
2026-05-05 14:22 43.61025 -79.21574 12770 ft 435 kts 63°
2026-05-05 14:22 43.62393 -79.17799 13339 ft 440 kts 63°
2026-05-05 14:22 43.63768 -79.13997 14016 ft 442 kts 63°
2026-05-05 14:22 43.65125 -79.10236 14727 ft 445 kts 63°
2026-05-05 14:23 43.66508 -79.06399 15494 ft 447 kts 64°
2026-05-05 14:23 43.67897 -79.02541 16180 ft 451 kts 64°
2026-05-05 14:23 43.69292 -78.98657 16817 ft 456 kts 64°
2026-05-05 14:23 43.70702 -78.94729 17399 ft 461 kts 64°
2026-05-05 14:24 43.72127 -78.90750 18079 ft 463 kts 64°
2026-05-05 14:24 43.73558 -78.86752 18699 ft 467 kts 63°
2026-05-05 14:24 43.74988 -78.82748 19279 ft 472 kts 63°
2026-05-05 14:24 43.76459 -78.78623 19859 ft 477 kts 63°
2026-05-05 14:25 43.77914 -78.74521 20380 ft 483 kts 63°
2026-05-05 14:25 43.79379 -78.70302 20950 ft 487 kts 64°
2026-05-05 14:25 43.80820 -78.66132 21574 ft 489 kts 63°
2026-05-05 14:25 43.82296 -78.61858 22113 ft 494 kts 63°
2026-05-05 14:26 43.83781 -78.57554 22622 ft 499 kts 63°
2026-05-05 14:26 43.85288 -78.53179 23117 ft 504 kts 63°
2026-05-05 14:26 43.86778 -78.48848 23636 ft 508 kts 63°
2026-05-05 14:26 43.88314 -78.44376 24179 ft 512 kts 63°
2026-05-05 14:27 43.89843 -78.39920 24746 ft 515 kts 63°
2026-05-05 14:27 43.91376 -78.35442 25296 ft 518 kts 63°
2026-05-05 14:27 43.92921 -78.30924 25791 ft 522 kts 63°
2026-05-05 14:27 43.94470 -78.26388 26139 ft 528 kts 64°
2026-05-05 14:28 43.96046 -78.21763 26562 ft 533 kts 63°
2026-05-05 14:28 43.97625 -78.17123 27106 ft 535 kts 63°
2026-05-05 14:28 43.99213 -78.12444 27644 ft 537 kts 63°
2026-05-05 14:28 44.00795 -78.07781 28070 ft 540 kts 63°
2026-05-05 14:29 44.02406 -78.03020 28466 ft 545 kts 63°
2026-05-05 14:29 44.04023 -77.98235 28889 ft 548 kts 63°
2026-05-05 14:29 44.05640 -77.93439 29364 ft 550 kts 63°
2026-05-05 14:29 44.07236 -77.88697 29971 ft 548 kts 63°
2026-05-05 14:30 44.08839 -77.83929 30653 ft 545 kts 63°
2026-05-05 14:30 44.10442 -77.79147 31303 ft 543 kts 63°
2026-05-05 14:30 44.12038 -77.74383 31846 ft 542 kts 63°
2026-05-05 14:30 44.13627 -77.69627 32335 ft 542 kts 63°
2026-05-05 14:31 44.15202 -77.64907 32890 ft 541 kts 63°
2026-05-05 14:31 44.16801 -77.60109 33393 ft 540 kts 63°
2026-05-05 14:31 44.18375 -77.55376 33916 ft 539 kts 63°
2026-05-05 14:31 44.20052 -77.50796 34421 ft 535 kts 56°
2026-05-05 14:32 44.22174 -77.46504 34892 ft 531 kts 48°
2026-05-05 14:32 44.24441 -77.42531 35295 ft 529 kts 47°
2026-05-05 14:32 44.26749 -77.38534 35669 ft 528 kts 47°
2026-05-05 14:32 44.29048 -77.34544 35981 ft 528 kts 48°
2026-05-05 14:33 44.31364 -77.30516 36191 ft 530 kts 48°
2026-05-05 14:33 44.33666 -77.26503 36420 ft 531 kts 48°
2026-05-05 14:33 44.35964 -77.22485 36716 ft 531 kts 48°
2026-05-05 14:33 44.38263 -77.18460 36884 ft 532 kts 48°
2026-05-05 14:34 44.42857 -77.10392 36892 ft 529 kts 48°
2026-05-05 14:34 44.47419 -77.02355 36891 ft 530 kts 48°
2026-05-05 14:35 44.52006 -76.94250 36887 ft 529 kts 48°
2026-05-05 14:35 44.56585 -76.86136 36885 ft 531 kts 48°
2026-05-05 14:36 44.61120 -76.78072 36814 ft 532 kts 49°
2026-05-05 14:36 44.63406 -76.74000 36659 ft 532 kts 49°
2026-05-05 14:36 44.65698 -76.69913 36645 ft 531 kts 49°
2026-05-05 14:37 44.70280 -76.61719 36647 ft 531 kts 48°
2026-05-05 14:37 44.74842 -76.53541 36647 ft 531 kts 49°
2026-05-05 14:38 44.79393 -76.45358 36644 ft 533 kts 49°